QZS-1R

Last updated on Thu Nov 21 2024 00:02:44 GMT+0000 (Coordinated Universal Time)

1 49336U 21096A 24324.68069785 -.00000247 00000+0 00000+0 0 9999 2 49336 36.2705 88.1769 0750337 270.8274 81.1501 1.00269192 11259
UTC large
Height (km)
Speed (km/s)
/
Latitude / Longitude
Inclination (degrees)
Orbital Period (minutes)
Azimuth
Elevation
Range (km)
Doppler Factor

Next 0 passes for location: London (51.5072 / 0.1276)

Sorry there are no passes over London.